Snowfall_Accumulation
0.0 0.0 0.0 0.0 0.0 0.0 0.0 0.0 0.0 0.0 0.0 0.0 0.0 0.0 0.0 0.0 0.0 0.0 0.0 0.0 0.0 0.0 0.0 0.0 0.0 0.0 0.0 0.0 0.0 0.0 0.0 0.0 0.0 0.0 0.0 0.0 0.0 0.0 0.0 0.0 0.0 0.0 0.0
0.0 0.0 0.0 0.0 0.0 0.0 0.0 0.0 0.0 0.0 0.0 0.0 0.0 0.0 0.0 0.0 0.0 0.0 0.0 0.0 0.0 0.0 0.0 0.0 0.0 0.0 0.0 0.0 0.0 0.0 0.0 0.0 0.0 0.0 0.0 0.0 0.0 0.0 0.0 0.0 0.0 0.0 0.0
0.0 0.0 0.0 0.0 0.0 0.0 0.0 0.0 0.0 0.0 0.0 0.0 0.0 0.0 0.0 0.0 0.0 0.0 0.0 0.0 0.0 0.0 0.0 0.0 0.0 0.0 0.0 0.0 0.0 0.0 0.0 0.0 0.0 0.0 0.0 0.0 0.0 0.0 0.0 0.0 0.0 0.0 0.0
0.0 0.0 0.0 0.0 0.0 0.0 0.0 0.0 0.0 0.0 0.0 0.0 0.0 0.0 0.0 0.0 0.0 0.0 0.0 0.0 0.0 0.0 0.0 0.0 0.1 0.1 0.0 0.0 0.0 0.0 0.0 0.0 0.0 0.0 0.0 0.0 0.0 0.0 0.0 0.0 0.0 0.0 0.0
0.0 0.0 0.0 0.0 0.0 0.0 0.0 0.0 0.0 0.0 0.0 0.0 0.0 0.0 0.0 0.0 0.0 0.0 0.0 0.0 0.0 0.0 0.0 0.0 0.0 0.1 0.2 0.2 0.0 0.0 0.1 0.0 0.0 0.0 0.0 0.0 0.0 0.0 0.0 0.0 0.0 0.0 0.0
0.0 0.0 0.0 0.0 0.0 0.0 0.0 0.0 0.0 0.0 0.0 0.0 0.0 0.0 0.0 0.0 0.0 0.0 0.0 0.0 0.0 0.0 0.0 0.0 0.0 0.0 0.1 0.3 0.1 0.1 0.1 0.1 0.1 0.0 0.0 0.0 0.0 0.0 0.0 0.0 0.0 0.0 0.0
0.0 0.0 0.0 0.0 0.0 0.0 0.0 0.0 0.0 0.0 0.1 0.0 0.0 0.0 0.0 0.0 0.0 0.0 0.0 0.0 0.0 0.0 0.0 0.0 0.1 0.0 0.0 0.1 0.2 0.3 0.1 0.1 0.1 0.0 0.1 0.0 0.0 0.0 0.0 0.0 0.0 0.0 0.0
0.0 0.0 0.0 0.0 0.0 0.0 0.0 0.0 0.0 0.2 0.1 0.1 0.3 0.6 0.3 0.0 0.0 0.0 0.0 0.0 0.0 0.0 0.0 0.0 0.0 0.0 0.0 0.0 0.0 0.2 0.3 0.1 0.1 0.1 0.1 0.1 0.0 0.0 0.0 0.0 0.0 0.0 0.0
0.0 0.0 0.0 0.1 0.1 0.1 0.1 0.1 0.1 0.3 0.4 0.2 0.2 1.3 2.3 1.4 0.3 0.0 0.0 0.0 0.0 0.0 0.0 0.0 0.0 0.0 0.0 0.1 0.1 0.2 0.3 0.2 0.1 0.1 0.0 0.0 0.0 0.0 0.0 0.0 0.0 0.0 0.0
0.0 0.0 0.1 0.1 0.1 0.1 0.1 0.2 0.1 0.3 0.7 0.8 0.4 0.5 1.3 1.9 2.4 1.0 0.0 0.0 0.0 0.0 0.0 0.0 0.0 0.0 0.1 0.1 0.3 0.3 0.4 0.4 0.1 0.1 0.0 0.0 0.0 0.0 0.0 0.0 0.0 0.0 0.0
0.0 0.0 0.1 0.1 0.1 0.1 0.1 0.2 0.3 0.4 0.7 1.1 1.1 1.0 0.7 0.7 1.2 2.2 1.0 0.0 0.0 0.0 0.0 0.1 0.1 0.1 0.0 0.1 0.2 0.2 0.5 0.5 0.3 0.1 0.0 0.0 0.0 0.0 0.0 0.0 0.0 0.0 0.0
0.0 0.0 0.0 0.0 0.1 0.1 0.2 0.3 0.4 0.5 0.6 0.7 1.0 1.2 1.6 1.8 1.3 1.7 1.7 0.3 0.0 0.0 0.0 0.0 0.1 0.1 0.1 0.2 0.2 0.3 0.5 0.6 0.4 0.3 0.2 0.0 0.0 0.0 0.0 0.0 0.0 0.0 0.0
0.0 0.0 0.0 0.0 0.0 0.1 0.1 0.3 0.4 0.5 0.4 0.7 0.9 1.1 1.3 1.3 1.4 1.8 2.3 1.3 0.4 0.0 0.0 0.0 0.1 0.2 0.2 0.3 0.1 0.2 0.4 0.5 0.6 0.5 0.3 0.2 0.0 0.0 0.0 0.0 0.0 0.0 0.0
0.0 0.0 0.0 0.0 0.0 0.1 0.1 0.3 0.4 0.4 0.5 0.7 0.8 1.1 1.5 1.2 1.5 2.1 2.8 3.3 2.5 0.4 0.1 0.1 0.1 0.1 0.1 0.1 0.1 0.2 0.1 0.2 0.2 0.3 0.4 0.2 0.1 0.0 0.0 0.0 0.0 0.0 0.0
0.0 0.0 0.0 0.0 0.0 0.1 0.2 0.4 0.5 0.5 0.7 0.9 1.2 1.5 1.9 1.6 1.7 2.0 2.5 3.7 5.4 3.8 0.8 0.1 0.1 0.0 0.0 0.0 0.0 0.0 0.0 0.0 0.1 0.2 0.3 0.3 0.2 0.0 0.0 0.0 0.0 0.0 0.0
0.0 0.0 0.0 0.0 0.1 0.2 0.3 0.5 0.6 0.8 1.1 1.3 1.6 2.0 2.1 2.1 2.1 2.1 2.5 2.9 4.0 5.0 2.8 0.3 0.1 0.0 0.0 0.0 0.0 0.0 0.0 0.0 0.1 0.1 0.1 0.1 0.1 0.0 0.0 0.0 0.0 0.0 0.0
0.0 0.0 0.0 0.1 0.2 0.4 0.6 0.8 0.8 1.0 1.3 1.5 1.8 2.2 2.3 2.5 2.9 2.3 2.3 2.4 2.5 3.1 2.8 0.4 0.1 0.0 0.0 0.0 0.0 0.0 0.0 0.0 0.0 0.0 0.0 0.1 0.1 0.1 0.0 0.0 0.0 0.0 0.0
0.0 0.0 0.0 0.2 0.6 0.9 1.0 1.2 1.2 1.2 1.6 1.8 1.9 2.4 2.6 2.5 2.6 2.3 2.1 2.0 1.6 1.6 2.1 1.2 0.1 0.0 0.0 0.0 0.0 0.0 0.0 0.0 0.0 0.0 0.0 0.0 0.0 0.1 0.0 0.0 0.0 0.0 0.0
0.0 0.0 0.1 0.4 1.2 1.9 1.8 1.5 1.8 1.9 1.9 2.0 2.2 2.6 2.6 2.5 2.4 2.2 2.2 1.9 1.4 1.1 1.5 1.8 0.7 0.1 0.1 0.1 0.1 0.0 0.0 0.0 0.0 0.0 0.0 0.0 0.0 0.0 0.1 0.0 0.0 0.0 0.0
0.1 0.1 0.1 0.2 1.3 3.2 3.5 2.6 3.1 2.9 2.3 2.0 1.6 1.6 2.3 3.3 3.2 2.9 2.9 2.2 1.8 1.8 1.8 1.5 0.9 0.5 0.4 0.3 0.2 0.2 0.1 0.1 0.1 0.0 0.0 0.0 0.0 0.0 0.1 0.1 0.0 0.0 0.0
0.1 0.1 0.1 0.1 0.5 4.0 7.8 7.2 6.6 4.8 2.8 1.7 1.1 1.0 1.8 3.1 3.3 4.3 4.9 4.0 3.3 3.3 2.7 2.2 1.5 1.1 1.0 0.9 0.8 0.5 0.3 0.1 0.1 0.0 0.0 0.0 0.0 0.0 0.0 0.0 0.0 0.0 0.0
0.1 0.1 0.1 0.1 0.2 2.8 8.2 9.0 6.6 3.6 2.1 1.5 1.1 0.7 1.0 2.1 2.2 2.7 3.6 4.2 4.2 4.6 4.4 3.7 2.9 2.4 2.0 1.5 1.1 0.8 0.7 0.5 0.4 0.1 0.2 0.0 0.0 0.0 0.0 0.0 0.0 0.0 0.0
0.1 0.1 0.1 0.1 0.1 1.5 6.6 7.6 4.6 2.4 1.5 1.2 0.9 0.6 0.7 1.6 2.0 2.6 2.8 2.5 2.4 3.3 4.6 4.8 4.4 3.6 2.6 1.7 1.5 1.2 1.2 1.0 0.6 0.3 0.4 0.1 0.0 0.1 0.0 0.0 0.0 0.0 0.0
0.2 0.2 0.1 0.1 0.1 0.7 5.0 6.3 3.5 1.8 1.1 0.8 0.5 0.5 0.5 0.9 2.1 3.7 3.6 2.9 2.4 3.0 4.3 5.0 6.2 5.7 3.8 2.2 2.3 2.0 1.7 1.1 0.3 0.4 0.7 0.5 0.0 0.1 0.0 0.0 0.0 0.0 0.0
0.2 0.2 0.1 0.1 0.1 0.2 2.9 5.3 3.2 1.5 0.8 0.5 0.2 0.3 0.4 0.8 2.0 3.2 2.5 1.7 1.4 2.0 2.7 3.6 4.4 5.1 4.8 3.8 2.4 2.5 1.9 1.3 0.8 0.8 0.9 0.8 0.3 0.1 0.0 0.0 0.0 0.0 0.0
0.2 0.2 0.1 0.1 0.1 0.0 1.3 3.7 3.6 1.8 0.7 0.3 0.2 0.1 0.5 1.3 2.0 2.4 1.4 1.0 2.2 2.6 2.0 1.7 2.0 2.7 3.4 3.8 2.3 2.0 1.9 1.7 1.7 1.7 1.5 1.1 0.9 0.6 0.1 0.0 0.0 0.0 0.0